| time (UTC) | temp F | wind direction | speed MPH | gust MPH | rain 1hr in | rain 24hr in | rain mn in | humidity % | barometer mb |
| 20260504081536 | 60 | 0 | 0.0 | 0.0 | 0.00 | 0.00 | 0.00 | 74 | 1008.7 |
| 20260504044539 | 67 | 0 | 0.0 | 3.0 | 0.00 | 0.00 | 0.00 | 57 | 1008.5 |
| 20260504043043 | 67 | 0 | 0.0 | 4.0 | 0.00 | 0.00 | 0.00 | 57 | 1009.0 |
| 20260504041538 | 67 | 0 | 0.0 | 2.0 | 0.00 | 0.00 | 0.00 | 57 | 1009.3 |
| 20260504040037 | 66 | 136 | 1.0 | 4.0 | 0.00 | 0.00 | 0.00 | 58 | 1009.1 |
| 20260504034539 | 65 | 0 | 0.0 | 1.0 | 0.00 | 0.00 | 0.00 | 61 | 1009.8 |
| 20260504033032 | 65 | 0 | 0.0 | 0.0 | 0.00 | 0.00 | 0.00 | 60 | 1010.0 |
| 20260504031534 | 65 | 0 | 0.0 | 0.0 | 0.00 | 0.00 | 0.00 | 58 | 1009.9 |
| 20260504030046 | 65 | 0 | 0.0 | 0.0 | 0.00 | 0.00 | 0.00 | 57 | 1009.7 |
| 20260504024536 | 66 | 0 | 0.0 | 0.0 | 0.00 | 0.00 | 0.00 | 57 | 1009.7 |
| 20260504023036 | 66 | 0 | 0.0 | 0.0 | 0.00 | 0.00 | 0.00 | 57 | 1009.7 |
| 20260504021539 | 67 | 0 | 0.0 | 1.0 | 0.00 | 0.00 | 0.00 | 57 | 1009.5 |
| 20260504020040 | 68 | 0 | 0.0 | 0.0 | 0.00 | 0.00 | 0.00 | 54 | 1009.5 |
| 20260504014548 | 69 | 0 | 0.0 | 0.0 | 0.00 | 0.00 | 0.00 | 52 | 1009.3 |
| 20260504013038 | 70 | 0 | 0.0 | 0.0 | 0.00 | 0.00 | 0.00 | 51 | 1009.3 |
| 20260504011537 | 71 | 0 | 0.0 | 0.0 | 0.00 | 0.00 | 0.00 | 49 | 1009.2 |
| 20260504010035 | 72 | 0 | 0.0 | 0.0 | 0.00 | 0.00 | 0.00 | 47 | 1009.2 |
| 20260504004535 | 73 | 0 | 0.0 | 0.0 | 0.00 | 0.00 | 0.00 | 46 | 1009.2 |
| 20260504003041 | 74 | 0 | 0.0 | 3.0 | 0.00 | 0.00 | 0.00 | 45 | 1009.2 |
| 20260504001539 | 75 | 0 | 0.0 | 2.0 | 0.00 | 0.00 | 0.00 | 43 | 1009.2 |
| 20260504000038 | 75 | 0 | 0.0 | 2.0 | 0.00 | 0.00 | 0.00 | 42 | 1009.3 |
| 20260503234535 | 76 | 0 | 0.0 | 6.0 | 0.00 | 0.00 | 0.00 | 40 | 1009.4 |
| 20260503233036 | 76 | 309 | 0.0 | 6.0 | 0.00 | 0.00 | 0.00 | 38 | 1009.4 |
| 20260503231541 | 77 | 0 | 0.0 | 4.0 | 0.00 | 0.00 | 0.00 | 37 | 1009.5 |
| 20260503230038 | 77 | 0 | 1.0 | 6.0 | 0.00 | 0.00 | 0.00 | 36 | 1009.6 |
| 20260503224536 | 78 | 258 | 2.0 | 7.0 | 0.00 | 0.00 | 0.00 | 35 | 1009.6 |
| 20260503223035 | 78 | 266 | 2.0 | 6.0 | 0.00 | 0.00 | 0.00 | 34 | 1009.7 |
| 20260503221535 | 78 | 345 | 2.0 | 9.0 | 0.00 | 0.00 | 0.00 | 33 | 1010.0 |
| 20260503220035 | 78 | 246 | 1.0 | 6.0 | 0.00 | 0.00 | 0.00 | 36 | 1010.0 |
| 20260503214542 | 77 | 0 | 1.0 | 7.0 | 0.00 | 0.00 | 0.00 | 37 | 1010.1 |
| 20260503213039 | 76 | 0 | 1.0 | 7.0 | 0.00 | 0.00 | 0.00 | 40 | 1010.0 |
| 20260503211546 | 76 | 257 | 2.0 | 16.0 | 0.00 | 0.00 | 0.00 | 37 | 1010.2 |
| 20260503210036 | 75 | 107 | 1.0 | 10.0 | 0.00 | 0.00 | 0.00 | 39 | 1010.5 |
| 20260503204534 | 75 | 0 | 0.0 | 7.0 | 0.00 | 0.00 | 0.00 | 38 | 1010.6 |
| 20260503203046 | 74 | 276 | 1.0 | 12.0 | 0.00 | 0.00 | 0.00 | 39 | 1011.0 |
| 20260503201538 | 74 | 152 | 0.0 | 6.0 | 0.00 | 0.00 | 0.00 | 40 | 1011.5 |
| 20260503200052 | 74 | 257 | 2.0 | 9.0 | 0.00 | 0.00 | 0.00 | 39 | 1011.8 |
| 20260503194536 | 73 | 123 | 1.0 | 9.0 | 0.00 | 0.00 | 0.00 | 39 | 1012.2 |
| 20260503193037 | 73 | 258 | 0.0 | 10.0 | 0.00 | 0.00 | 0.00 | 39 | 1012.5 |
| 20260503191544 | 73 | 268 | 2.0 | 7.0 | 0.00 | 0.00 | 0.00 | 39 | 1013.0 |
| 20260503190047 | 73 | 329 | 1.0 | 7.0 | 0.00 | 0.00 | 0.00 | 38 | 1013.4 |
| 20260503184543 | 72 | 0 | 1.0 | 4.0 | 0.00 | 0.00 | 0.00 | 39 | 1013.7 |
| 20260503183042 | 71 | 0 | 2.0 | 9.0 | 0.00 | 0.00 | 0.00 | 39 | 1014.0 |
| 20260503181552 | 71 | 0 | 1.0 | 8.0 | 0.00 | 0.00 | 0.00 | 38 | 1014.8 |
| 20260503180050 | 71 | 247 | 1.0 | 8.0 | 0.00 | 0.00 | 0.00 | 40 | 1015.2 |
| 20260503174546 | 69 | 144 | 2.0 | 10.0 | 0.00 | 0.00 | 0.00 | 42 | 1015.9 |
| 20260503173046 | 68 | 259 | 1.0 | 6.0 | 0.00 | 0.00 | 0.00 | 41 | 1016.4 |
| 20260503171534 | 68 | 271 | 2.0 | 8.0 | 0.00 | 0.00 | 0.00 | 45 | 1016.7 |